Location: *
(41.3833°S, 177.8333°W)
Time: 20:52:33
(UTC+00:00)

Lacrosse 5 - Pass Details

Date: 01 April 2020
Orbit: 715 x 724 km, 57.0° (Epoch: 27 May)

Event Time Altitude Azimuth Distance (km) Brightness Sun altitude
Exits shadow 15:25:37 40° 66° (ENE) 1,071 2.9 -30.7°
Drops below altitude 10° 15:28:53 10° 53° (NE) 2,208 4.7 -30.1°
Sets 15:31:16 0° 51° (NE) 3,121 5.5 -29.7°
